Terminal Aerodrome Forecast
Issued by NWS

Home | Current Version | Previous Version | Text Only | Print | Product List | Glossary On
Versions: 1 2 3 4 5 6 7 8 9 10 11 12 13 14 15 16 17 18 19 20 21 22 23 24
000
FTUS41 KOKX 282300
TAFTEB
TAF
KTEB 282323Z 2900/2924 33008KT P6SM SCT035 BKN120
      TEMPO 2900/2902 BKN035
     FM290600 33006KT P6SM BKN150
     FM291200 34007KT P6SM BKN250
     FM291800 32007KT P6SM FEW035 BKN250=

USA.gov is the U.S. government's official web portal to all federal, state and local government web resources and services.